timestamp,surface_pressure_avg,surface_temp_avg,battery_voltage,lat,long
2022-02-08 00:09:01+00:00,217.2315,1.69,12.81,47.84626,-54.09684
2022-02-08 00:19:01+00:00,221.6831,1.69,12.57,47.84626,-54.09684
2022-02-08 00:29:01+00:00,224.1414,1.7,12.57,47.84626,-54.09684
2022-02-08 00:39:01+00:00,226.3247,1.7,12.57,47.84626,-54.09684
2022-02-08 00:49:01+00:00,226.9181,1.6,12.57,47.84626,-54.09684
2022-02-08 00:59:01+00:00,232.2014,1.57,12.57,47.84626,-54.09684
2022-02-08 01:09:01+00:00,241.8081,1.5,12.57,47.84626,-54.09684
2022-02-08 01:19:00+00:00,243.5698,1.5,12.57,47.84626,-54.09684
2022-02-08 01:29:00+00:00,241.8748,1.4,12.57,47.84626,-54.09684
2022-02-08 01:39:00+00:00,243.748,1.3,12.57,47.84626,-54.09684
2022-02-08 01:49:00+00:00,244.9297,1.3,12.57,47.84626,-54.09684
2022-02-08 01:59:00+00:00,243.8014,1.1,12.57,47.84626,-54.09684
2022-02-08 02:09:00+00:00,247.0247,1.0,12.57,47.84626,-54.09684
2022-02-08 02:19:00+00:00,257.3815,1.0,12.57,47.84626,-54.09684
2022-02-08 02:29:00+00:00,262.9847,1.0,12.57,47.84626,-54.09684
2022-02-08 02:39:00+00:00,266.1247,0.99,12.57,47.84626,-54.09684
2022-02-08 02:49:00+00:00,272.0381,1.0,12.57,47.84626,-54.09684
2022-02-08 02:59:00+00:00,281.0831,1.0,12.57,47.84626,-54.09684
2022-02-08 03:09:00+00:00,286.0047,1.0,12.57,47.84626,-54.09684
2022-02-08 03:19:00+00:00,287.5897,1.01,12.49,47.84626,-54.09684
2022-02-08 03:29:00+00:00,290.1114,1.07,12.49,47.84626,-54.09684
2022-02-08 03:39:00+00:00,295.9664,1.0,12.49,47.84626,-54.09684
2022-02-08 03:49:00+00:00,295.8164,0.9,12.49,47.84626,-54.09684
2022-02-08 03:59:00+00:00,290.1897,0.8,12.49,47.84626,-54.09684
2022-02-08 04:09:00+00:00,296.8148,0.8,12.49,47.84626,-54.09684
2022-02-08 04:19:01+00:00,304.2497,0.86,12.49,47.84626,-54.09684
2022-02-08 04:29:01+00:00,301.7681,0.92,12.49,47.84626,-54.09684
2022-02-08 04:39:01+00:00,296.6297,1.09,12.49,47.84626,-54.09684
2022-02-08 04:49:01+00:00,297.9597,1.1,12.49,47.84626,-54.09684
2022-02-08 04:59:01+00:00,299.8797,1.1,12.49,47.84626,-54.09684
2022-02-08 05:09:01+00:00,297.7131,1.1,12.49,47.84626,-54.09684
2022-02-08 05:19:00+00:00,294.0897,0.9,12.57,47.84626,-54.09684
2022-02-08 05:29:00+00:00,292.6097,0.7,12.57,47.84626,-54.09684
2022-02-08 05:39:00+00:00,294.2014,0.78,12.57,47.84626,-54.09684
2022-02-08 05:49:00+00:00,295.9581,0.9,12.57,47.84626,-54.09684
2022-02-08 05:59:00+00:00,292.773,0.94,12.57,47.84626,-54.09684
2022-02-08 06:09:00+00:00,292.1013,0.92,12.57,47.84626,-54.09684
2022-02-08 06:19:00+00:00,292.8713,0.91,12.57,47.84626,-54.09684
2022-02-08 06:29:00+00:00,288.593,0.92,12.57,47.84626,-54.09684
2022-02-08 06:39:00+00:00,284.1214,0.93,12.57,47.84626,-54.09684
2022-02-08 06:49:00+00:00,285.9414,0.99,12.57,47.84626,-54.09684
2022-02-08 06:59:00+00:00,286.0598,1.0,12.57,47.84626,-54.09684
2022-02-08 07:09:00+00:00,279.5947,1.0,12.57,47.84626,-54.09684
2022-02-08 07:19:00+00:00,273.9247,0.96,12.57,47.84626,-54.09684
2022-02-08 07:29:00+00:00,272.2997,0.97,12.57,47.84626,-54.09684
2022-02-08 07:39:00+00:00,270.1331,1.0,12.57,47.84626,-54.09684
2022-02-08 07:49:00+00:00,264.7781,1.0,12.57,47.84626,-54.09684
2022-02-08 07:59:00+00:00,256.7164,0.98,12.57,47.84626,-54.09684
2022-02-08 08:09:00+00:00,249.5914,0.84,12.57,47.84626,-54.09684
2022-02-08 08:19:01+00:00,242.4231,0.81,12.57,47.84626,-54.09684
2022-02-08 08:29:01+00:00,228.7431,0.8,12.57,47.84626,-54.09684
2022-02-08 08:39:01+00:00,213.3764,0.8,12.57,47.84626,-54.09684
2022-02-08 08:49:01+00:00,203.5714,0.8,12.57,47.84626,-54.09684
2022-02-08 08:59:01+00:00,194.6665,0.8,12.57,47.84626,-54.09684
2022-02-08 09:09:01+00:00,191.8531,0.8,12.57,47.84626,-54.09684
2022-02-08 09:19:01+00:00,195.0215,0.8,12.57,47.84626,-54.09684
2022-02-08 09:29:01+00:00,195.5164,0.8,12.57,47.84626,-54.09684
2022-02-08 09:39:01+00:00,191.0831,0.7,12.57,47.84626,-54.09684
2022-02-08 09:49:01+00:00,190.8048,0.68,12.57,47.84626,-54.09684
2022-02-08 09:59:01+00:00,192.9998,0.7,12.57,47.84626,-54.09684
2022-02-08 10:09:01+00:00,186.5298,0.8,12.57,47.84626,-54.09684
2022-02-08 10:19:00+00:00,187.4415,0.9,12.57,47.84626,-54.09684
2022-02-08 10:29:00+00:00,199.3581,0.9,12.57,47.84626,-54.09684
2022-02-08 10:39:00+00:00,200.4631,0.99,12.57,47.84626,-54.09684
2022-02-08 10:49:00+00:00,196.5898,1.0,12.57,47.84626,-54.09684
2022-02-08 10:59:00+00:00,204.3397,0.9,12.57,47.84626,-54.09684
2022-02-08 11:09:00+00:00,217.0581,0.85,12.57,47.84626,-54.09684
2022-02-08 11:19:00+00:00,219.0898,0.85,12.57,47.84626,-54.09684
2022-02-08 11:29:00+00:00,219.7048,0.92,12.57,47.84626,-54.09684
2022-02-08 11:39:00+00:00,228.8181,1.0,12.57,47.84626,-54.09684
2022-02-08 11:49:00+00:00,229.8164,1.0,12.57,47.84626,-54.09684
2022-02-08 11:59:00+00:00,221.8965,0.99,12.57,47.84626,-54.09684
2022-02-08 12:09:00+00:00,221.8214,0.9,12.57,47.84626,-54.09684
2022-02-08 12:19:00+00:00,230.5681,0.9,12.57,47.84626,-54.09684
2022-02-08 12:29:00+00:00,231.7381,0.95,12.57,47.84626,-54.09684
2022-02-08 12:39:00+00:00,229.1564,1.0,12.57,47.84626,-54.09684
2022-02-08 12:49:00+00:00,231.3931,1.0,12.57,47.84626,-54.09684
2022-02-08 12:59:00+00:00,235.8698,1.0,12.57,47.84626,-54.09684
2022-02-08 13:09:00+00:00,231.9264,1.0,12.57,47.84626,-54.09684
2022-02-08 13:19:00+00:00,230.3931,1.0,12.65,47.84626,-54.09684
2022-02-08 13:29:00+00:00,239.5381,1.0,12.65,47.84626,-54.09684
2022-02-08 13:39:00+00:00,241.8681,1.07,12.65,47.84626,-54.09684
2022-02-08 13:49:00+00:00,237.3164,1.1,12.65,47.84626,-54.09684
2022-02-08 13:59:00+00:00,238.6914,1.1,12.65,47.84626,-54.09684
2022-02-08 14:09:00+00:00,250.8381,1.1,12.65,47.84626,-54.09684
2022-02-08 14:19:01+00:00,256.0398,1.09,13.44,47.84626,-54.09684
2022-02-08 14:29:01+00:00,255.1098,1.1,13.44,47.84626,-54.09684
2022-02-08 14:39:01+00:00,257.268,1.17,13.44,47.84626,-54.09684
2022-02-08 14:49:01+00:00,263.3647,1.17,13.44,47.84626,-54.09684
2022-02-08 14:59:01+00:00,264.8647,1.2,13.44,47.84626,-54.09684
2022-02-08 15:09:01+00:00,266.8047,1.24,13.44,47.84626,-54.09684
2022-02-08 15:19:00+00:00,274.7147,1.3,13.53,47.84626,-54.09684
2022-02-08 15:29:00+00:00,281.8064,1.37,13.53,47.84626,-54.09684
2022-02-08 15:39:00+00:00,278.7581,1.37,13.53,47.84626,-54.09684
2022-02-08 15:49:00+00:00,279.348,1.38,13.53,47.84626,-54.09684
2022-02-08 15:59:00+00:00,287.8047,1.34,13.53,47.84626,-54.09684
2022-02-08 16:09:00+00:00,293.9647,1.33,13.53,47.84626,-54.09684
2022-02-08 16:19:01+00:00,291.0031,1.32,14.24,47.84626,-54.09684
2022-02-08 16:29:01+00:00,293.1164,1.3,14.24,47.84626,-54.09684
2022-02-08 16:39:01+00:00,296.3747,1.3,14.24,47.84626,-54.09684
2022-02-08 16:49:01+00:00,298.0997,1.3,14.24,47.84626,-54.09684
2022-02-08 16:59:01+00:00,300.0147,1.3,14.24,47.84626,-54.09684
2022-02-08 17:09:01+00:00,308.2364,1.3,14.24,47.84626,-54.09684
2022-02-08 17:19:01+00:00,308.8413,1.3,14.32,47.84626,-54.09684
2022-02-08 17:29:01+00:00,300.8613,1.3,14.32,47.84626,-54.09684
2022-02-08 17:39:01+00:00,298.0229,1.3,14.32,47.84626,-54.09684
2022-02-08 17:49:01+00:00,294.7847,1.3,14.32,47.84626,-54.09684
2022-02-08 17:59:01+00:00,288.0397,1.3,14.32,47.84626,-54.09684
2022-02-08 18:09:01+00:00,283.3931,1.3,14.32,47.84626,-54.09684
2022-02-08 18:19:01+00:00,282.2014,1.3,14.16,47.84626,-54.09684
2022-02-08 18:29:01+00:00,277.3098,1.3,14.16,47.84626,-54.09684
2022-02-08 18:39:01+00:00,271.6564,1.3,14.16,47.84626,-54.09684
2022-02-08 18:49:01+00:00,274.1947,1.28,14.16,47.84626,-54.09684
2022-02-08 18:59:01+00:00,275.1314,1.25,14.16,47.84626,-54.09684
2022-02-08 19:09:01+00:00,268.3914,1.28,14.16,47.84626,-54.09684
2022-02-08 19:19:01+00:00,268.2064,1.28,14.0,47.84626,-54.09684
2022-02-08 19:29:01+00:00,267.958,1.28,14.0,47.84626,-54.09684
2022-02-08 19:39:01+00:00,263.5047,1.29,14.0,47.84626,-54.09684
2022-02-08 19:49:01+00:00,257.9998,1.3,14.0,47.84626,-54.09684
2022-02-08 19:59:01+00:00,253.0514,1.3,14.0,47.84626,-54.09684
2022-02-08 20:09:01+00:00,245.6514,1.29,14.0,47.84626,-54.09684
2022-02-08 20:19:00+00:00,240.1614,1.22,13.68,47.84626,-54.09684
2022-02-08 20:29:00+00:00,240.8298,1.2,13.68,47.84626,-54.09684
2022-02-08 20:39:00+00:00,241.2181,1.2,13.68,47.84626,-54.09684
2022-02-08 20:49:00+00:00,244.0014,1.2,13.68,47.84626,-54.09684
2022-02-08 20:59:00+00:00,239.7031,1.2,13.68,47.84626,-54.09684
2022-02-08 21:09:00+00:00,231.3348,1.2,13.68,47.84626,-54.09684
2022-02-08 21:19:00+00:00,223.4031,1.2,13.29,47.84626,-54.09684
2022-02-08 21:29:00+00:00,218.7164,1.2,13.29,47.84626,-54.09684
2022-02-08 21:39:00+00:00,213.3198,1.2,13.29,47.84626,-54.09684
2022-02-08 21:49:00+00:00,213.4731,1.2,13.29,47.84626,-54.09684
2022-02-08 21:59:00+00:00,208.8648,1.2,13.29,47.84626,-54.09684
2022-02-08 22:09:00+00:00,202.2281,1.19,13.29,47.84626,-54.09684
2022-02-08 22:19:01+00:00,204.6431,1.18,12.89,47.84626,-54.09684
2022-02-08 22:29:01+00:00,210.3248,1.18,12.89,47.84626,-54.09684
2022-02-08 22:39:01+00:00,206.5447,1.16,12.89,47.84626,-54.09684
2022-02-08 22:49:01+00:00,199.1015,1.1,12.89,47.84626,-54.09684
2022-02-08 22:59:01+00:00,203.6864,1.1,12.89,47.84626,-54.09684
2022-02-08 23:09:01+00:00,215.3632,1.1,12.89,47.84626,-54.09684
2022-02-08 23:19:01+00:00,212.6565,1.1,12.65,47.84626,-54.09684
2022-02-08 23:29:01+00:00,209.0981,1.1,12.65,47.84626,-54.09684
2022-02-08 23:39:01+00:00,215.2898,1.1,12.65,47.84626,-54.09684
2022-02-08 23:49:01+00:00,216.6931,1.1,12.65,47.84626,-54.09684
2022-02-08 23:59:01+00:00,214.7381,1.1,12.65,47.84626,-54.09684
